Time,TemperatureF,DewpointF,PressureIn,WindDirection,WindDirectionDegrees,WindSpeedMPH,WindSpeedGustMPH,Humidity,HourlyPrecipIn,Conditions,Clouds,dailyrainin,SoftwareType,DateUTC
2013-08-02 00:02:00,70.0,62.0,-100.00,South,190,4.0,4.0,76,0.00,,,-99.99,,2013-08-02 05:02:00,
2013-08-02 00:12:00,71.0,62.0,-100.00,SSW,195,4.0,6.0,73,0.00,,,-99.99,,2013-08-02 05:12:00,
2013-08-02 00:22:00,71.0,62.0,-100.00,South,190,3.0,4.0,73,0.00,,,-99.99,,2013-08-02 05:22:00,
2013-08-02 00:32:00,71.0,62.0,-100.00,SW,220,2.0,4.0,73,0.00,,,-99.99,,2013-08-02 05:32:00,
2013-08-02 00:43:00,71.0,62.0,-100.00,SW,220,2.0,4.0,73,0.00,,,-99.99,,2013-08-02 05:43:00,
2013-08-02 00:53:00,71.0,62.0,-100.00,WSW,250,0.0,1.0,73,0.00,,,-99.99,,2013-08-02 05:53:00,
2013-08-02 01:02:00,70.0,62.0,-100.00,WSW,245,0.0,2.0,74,0.00,,,-99.99,,2013-08-02 06:02:00,
2013-08-02 01:12:00,69.0,61.0,-100.00,NW,305,1.0,1.0,75,0.00,,,-99.99,,2013-08-02 06:12:00,
2013-08-02 01:22:00,69.0,61.0,-100.00,NW,305,1.0,1.0,75,0.00,,,-99.99,,2013-08-02 06:22:00,
2013-08-02 01:33:00,69.0,62.0,-100.00,WSW,240,0.0,1.0,78,0.00,,,-99.99,,2013-08-02 06:33:00,
2013-08-02 01:43:00,69.0,62.0,-100.00,WSW,240,0.0,1.0,78,0.00,,,-99.99,,2013-08-02 06:43:00,
2013-08-02 01:52:00,70.0,63.0,-100.00,WSW,245,2.0,4.0,78,0.00,,,-99.99,,2013-08-02 06:52:00,
2013-08-02 02:02:00,70.0,63.0,-100.00,WSW,250,1.0,3.0,78,0.00,,,-99.99,,2013-08-02 07:02:00,
2013-08-02 02:12:00,69.0,62.0,-100.00,WNW,290,1.0,1.0,78,0.00,,,-99.99,,2013-08-02 07:12:00,
2013-08-02 02:33:00,69.0,63.0,-100.00,WNW,300,2.0,4.0,79,0.00,,,-99.99,,2013-08-02 07:33:00,
2013-08-02 02:44:00,69.0,62.0,-100.00,WNW,295,2.0,3.0,79,0.00,,,-99.99,,2013-08-02 07:44:00,
2013-08-02 02:53:00,69.0,62.0,-100.00,WNW,290,2.0,4.0,79,0.00,,,-99.99,,2013-08-02 07:53:00,
2013-08-02 03:02:00,68.0,62.0,-100.00,WNW,285,2.0,5.0,80,0.00,,,-99.99,,2013-08-02 08:02:00,
2013-08-02 03:12:00,68.0,62.0,-100.00,WNW,300,4.0,4.0,80,0.00,,,-99.99,,2013-08-02 08:12:00,
2013-08-02 03:22:00,68.0,62.0,-100.00,WNW,295,2.0,6.0,80,0.00,,,-99.99,,2013-08-02 08:22:00,
2013-08-02 03:33:00,68.0,62.0,-100.00,WNW,290,3.0,5.0,80,0.00,,,-99.99,,2013-08-02 08:33:00,
2013-08-02 03:43:00,68.0,62.0,-100.00,West,270,4.0,6.0,79,0.00,,,-99.99,,2013-08-02 08:43:00,
2013-08-02 03:53:00,68.0,61.0,-100.00,West,270,4.0,6.0,79,0.00,,,-99.99,,2013-08-02 08:53:00,
2013-08-02 04:02:00,68.0,61.0,-100.00,West,260,3.0,4.0,79,0.00,,,-99.99,,2013-08-02 09:02:00,
2013-08-02 04:12:00,68.0,61.0,-100.00,West,260,3.0,4.0,79,0.00,,,-99.99,,2013-08-02 09:12:00,
2013-08-02 04:23:00,68.0,61.0,-100.00,WNW,285,2.0,4.0,79,0.00,,,-99.99,,2013-08-02 09:23:00,
2013-08-02 04:33:00,68.0,61.0,-100.00,West,270,3.0,4.0,79,0.00,,,-99.99,,2013-08-02 09:33:00,
2013-08-02 04:43:00,68.0,61.0,-100.00,West,265,3.0,4.0,79,0.00,,,-99.99,,2013-08-02 09:43:00,
2013-08-02 04:53:00,68.0,62.0,-100.00,West,265,2.0,4.0,78,0.00,,,-99.99,,2013-08-02 09:53:00,
2013-08-02 05:03:00,68.0,61.0,-100.00,West,280,2.0,4.0,78,0.00,,,-99.99,,2013-08-02 10:03:00,
2013-08-02 05:12:00,68.0,61.0,-100.00,WNW,285,2.0,4.0,77,0.00,,,-99.99,,2013-08-02 10:12:00,
2013-08-02 05:23:00,68.0,61.0,-100.00,WNW,290,2.0,4.0,77,0.00,,,-99.99,,2013-08-02 10:23:00,
2013-08-02 05:33:00,68.0,61.0,-100.00,West,270,2.0,4.0,77,0.00,,,-99.99,,2013-08-02 10:33:00,
2013-08-02 05:43:00,68.0,61.0,-100.00,WNW,290,2.0,3.0,77,0.00,,,-99.99,,2013-08-02 10:43:00,
2013-08-02 05:52:00,68.0,61.0,-100.00,NW,315,1.0,2.0,77,0.00,,,-99.99,,2013-08-02 10:52:00,
2013-08-02 06:12:00,68.0,61.0,-100.00,WNW,295,1.0,2.0,78,0.00,,,-99.99,,2013-08-02 11:12:00,
2013-08-02 06:23:00,68.0,61.0,-100.00,WNW,290,0.0,2.0,78,0.00,,,-99.99,,2013-08-02 11:23:00,
2013-08-02 06:32:00,68.0,61.0,-100.00,WNW,290,0.0,2.0,78,0.00,,,-99.99,,2013-08-02 11:32:00,
2013-08-02 06:43:00,67.0,60.0,-100.00,West,280,0.0,3.0,78,0.00,,,-99.99,,2013-08-02 11:43:00,
2013-08-02 06:52:00,66.0,60.0,-100.00,NNE,25,2.0,5.0,80,0.00,,,-99.99,,2013-08-02 11:52:00,
2013-08-02 07:02:00,65.0,60.0,-100.00,NNE,30,3.0,6.0,82,0.00,,,-99.99,,2013-08-02 12:02:00,
2013-08-02 07:12:00,65.0,60.0,-100.00,North,5,3.0,4.0,83,0.00,,,-99.99,,2013-08-02 12:12:00,
2013-08-02 07:22:00,66.0,61.0,-100.00,West,275,1.0,3.0,84,0.00,,,-99.99,,2013-08-02 12:22:00,
2013-08-02 07:33:00,66.0,61.0,-100.00,West,275,1.0,3.0,84,0.00,,,-99.99,,2013-08-02 12:33:00,
2013-08-02 07:43:00,68.0,63.0,-100.00,West,260,0.0,1.0,83,0.00,,,-99.99,,2013-08-02 12:43:00,
2013-08-02 07:52:00,69.0,63.0,-100.00,SW,215,2.0,3.0,79,0.00,,,-99.99,,2013-08-02 12:52:00,
2013-08-02 08:02:00,69.0,63.0,-100.00,SW,215,2.0,3.0,79,0.00,,,-99.99,,2013-08-02 13:02:00,
2013-08-02 08:12:00,71.0,62.0,-100.00,SSW,200,2.0,4.0,73,0.00,,,-99.99,,2013-08-02 13:12:00,
2013-08-02 08:22:00,71.0,62.0,-100.00,SSW,200,2.0,4.0,73,0.00,,,-99.99,,2013-08-02 13:22:00,
2013-08-02 08:33:00,71.0,62.0,-100.00,SSW,200,2.0,4.0,73,0.00,,,-99.99,,2013-08-02 13:33:00,
2013-08-02 08:43:00,74.0,61.0,-100.00,WSW,255,0.0,3.0,63,0.00,,,-99.99,,2013-08-02 13:43:00,
2013-08-02 09:02:00,75.0,60.0,-100.00,NNE,20,3.0,6.0,59,0.00,,,-99.99,,2013-08-02 14:02:00,
2013-08-02 09:12:00,74.0,60.0,-100.00,North,350,2.0,4.0,61,0.00,,,-99.99,,2013-08-02 14:12:00,
2013-08-02 09:22:00,76.0,61.0,-100.00,NNE,25,2.0,3.0,60,0.00,,,-99.99,,2013-08-02 14:22:00,
2013-08-02 09:32:00,76.0,61.0,-100.00,NNE,25,2.0,3.0,60,0.00,,,-99.99,,2013-08-02 14:32:00,
2013-08-02 09:43:00,76.0,60.0,-100.00,North,0,1.0,6.0,58,0.00,,,-99.99,,2013-08-02 14:43:00,
2013-08-02 09:53:00,77.0,61.0,-100.00,WNW,290,2.0,4.0,56,0.00,,,-99.99,,2013-08-02 14:53:00,
2013-08-02 10:03:00,77.0,61.0,-100.00,WNW,290,2.0,4.0,56,0.00,,,-99.99,,2013-08-02 15:03:00,
2013-08-02 10:12:00,79.0,60.0,-100.00,NE,40,2.0,4.0,53,0.00,,,-99.99,,2013-08-02 15:12:00,
2013-08-02 10:22:00,78.0,59.0,-100.00,NE,35,1.0,5.0,53,0.00,,,-99.99,,2013-08-02 15:22:00,
2013-08-02 10:32:00,78.0,59.0,-100.00,NE,35,1.0,5.0,53,0.00,,,-99.99,,2013-08-02 15:32:00,
2013-08-02 10:43:00,79.0,58.0,-100.00,NNE,30,4.0,7.0,49,0.00,,,-99.99,,2013-08-02 15:43:00,
2013-08-02 10:52:00,79.0,58.0,-100.00,NNE,30,4.0,7.0,49,0.00,,,-99.99,,2013-08-02 15:52:00,
2013-08-02 11:02:00,79.0,57.0,-100.00,ENE,60,5.0,8.0,47,0.00,,,-99.99,,2013-08-02 16:02:00,
2013-08-02 11:12:00,79.0,56.0,-100.00,ENE,70,6.0,10.0,44,0.00,,,-99.99,,2013-08-02 16:12:00,
2013-08-02 11:22:00,79.0,55.0,-100.00,ENE,60,7.0,11.0,43,0.00,,,-99.99,,2013-08-02 16:22:00,
2013-08-02 11:32:00,81.0,55.0,-100.00,NNE,30,6.0,10.0,42,0.00,,,-99.99,,2013-08-02 16:32:00,
2013-08-02 11:42:00,80.0,55.0,-100.00,NE,45,5.0,11.0,41,0.00,,,-99.99,,2013-08-02 16:42:00,
2013-08-02 11:52:00,81.0,55.0,-100.00,North,355,2.0,11.0,40,0.00,,,-99.99,,2013-08-02 16:52:00,
2013-08-02 12:02:00,81.0,55.0,-100.00,NE,55,3.0,7.0,40,0.00,,,-99.99,,2013-08-02 17:02:00,
2013-08-02 12:12:00,82.0,55.0,-100.00,North,5,1.0,8.0,40,0.00,,,-99.99,,2013-08-02 17:12:00,
2013-08-02 12:22:00,82.0,55.0,-100.00,NE,40,4.0,9.0,40,0.00,,,-99.99,,2013-08-02 17:22:00,
2013-08-02 12:35:00,81.0,55.0,-100.00,East,85,6.0,9.0,40,0.00,,,-99.99,,2013-08-02 17:35:00,
2013-08-02 12:43:00,83.0,56.0,-100.00,East,85,4.0,7.0,39,0.00,,,-99.99,,2013-08-02 17:43:00,
2013-08-02 12:52:00,82.0,55.0,-100.00,ENE,75,6.0,11.0,39,0.00,,,-99.99,,2013-08-02 17:52:00,
2013-08-02 13:02:00,82.0,55.0,-100.00,ENE,60,6.0,8.0,39,0.00,,,-99.99,,2013-08-02 18:02:00,
2013-08-02 13:12:00,82.0,55.0,-100.00,East,85,3.0,6.0,39,0.00,,,-99.99,,2013-08-02 18:12:00,
2013-08-02 13:22:00,82.0,55.0,-100.00,East,85,3.0,6.0,39,0.00,,,-99.99,,2013-08-02 18:22:00,
2013-08-02 13:32:00,81.0,54.0,-100.00,ENE,75,4.0,8.0,38,0.00,,,-99.99,,2013-08-02 18:32:00,
2013-08-02 13:43:00,81.0,54.0,-100.00,ENE,75,4.0,8.0,38,0.00,,,-99.99,,2013-08-02 18:43:00,
2013-08-02 14:02:00,80.0,53.0,-100.00,NE,40,4.0,8.0,38,0.00,,,-99.99,,2013-08-02 19:02:00,
2013-08-02 14:12:00,81.0,53.0,-100.00,NNE,15,4.0,6.0,38,0.00,,,-99.99,,2013-08-02 19:12:00,
2013-08-02 14:22:00,81.0,53.0,-100.00,NNE,25,3.0,7.0,38,0.00,,,-99.99,,2013-08-02 19:22:00,
2013-08-02 14:32:00,81.0,53.0,-100.00,NNE,25,3.0,7.0,38,0.00,,,-99.99,,2013-08-02 19:32:00,
2013-08-02 14:43:00,80.0,53.0,-100.00,NE,40,9.0,12.0,39,0.00,,,-99.99,,2013-08-02 19:43:00,
2013-08-02 14:52:00,80.0,53.0,-100.00,NE,40,9.0,12.0,39,0.00,,,-99.99,,2013-08-02 19:52:00,
2013-08-02 15:02:00,80.0,54.0,-100.00,North,0,10.0,16.0,39,0.00,,,-99.99,,2013-08-02 20:02:00,
2013-08-02 15:12:00,79.0,53.0,-100.00,North,0,9.0,14.0,40,0.00,,,-99.99,,2013-08-02 20:12:00,
2013-08-02 15:22:00,79.0,54.0,-100.00,North,0,8.0,11.0,41,0.00,,,-99.99,,2013-08-02 20:22:00,
2013-08-02 15:32:00,79.0,52.0,-100.00,North,0,9.0,15.0,39,0.00,,,-99.99,,2013-08-02 20:32:00,
2013-08-02 15:43:00,78.0,53.0,-100.00,North,0,12.0,17.0,42,0.00,,,-99.99,,2013-08-02 20:43:00,
2013-08-02 15:52:00,76.0,53.0,-100.00,North,0,11.0,16.0,44,0.00,,,-99.99,,2013-08-02 20:52:00,
2013-08-02 16:03:00,76.0,52.0,-100.00,North,0,9.0,16.0,44,0.00,,,-99.99,,2013-08-02 21:03:00,
2013-08-02 16:12:00,75.0,51.0,-100.00,North,0,9.0,12.0,43,0.00,,,-99.99,,2013-08-02 21:12:00,
2013-08-02 16:32:00,75.0,51.0,-100.00,NNW,345,9.0,17.0,43,0.00,,,-99.99,,2013-08-02 21:32:00,
2013-08-02 16:43:00,70.0,56.0,-100.00,North,5,15.0,23.0,61,0.04,,,-99.99,,2013-08-02 21:43:00,
2013-08-02 16:53:00,67.0,56.0,-100.00,North,10,11.0,19.0,67,0.38,,,-99.99,,2013-08-02 21:53:00,
2013-08-02 17:02:00,67.0,56.0,-100.00,North,10,11.0,19.0,67,0.38,,,-99.99,,2013-08-02 22:02:00,
2013-08-02 17:12:00,68.0,61.0,-100.00,NNE,30,7.0,14.0,80,0.04,,,-99.99,,2013-08-02 22:12:00,
2013-08-02 17:22:00,67.0,61.0,-100.00,North,5,8.0,13.0,80,0.00,,,-99.99,,2013-08-02 22:22:00,
2013-08-02 17:32:00,68.0,61.0,-100.00,North,10,7.0,12.0,80,0.08,,,-99.99,,2013-08-02 22:32:00,
2013-08-02 17:43:00,68.0,61.0,-100.00,NNE,25,7.0,11.0,77,0.04,,,-99.99,,2013-08-02 22:43:00,
2013-08-02 18:02:00,69.0,60.0,-100.00,North,10,10.0,13.0,74,0.04,,,-99.99,,2013-08-02 23:02:00,
2013-08-02 18:12:00,69.0,61.0,-100.00,North,0,9.0,12.0,76,0.00,,,-99.99,,2013-08-02 23:12:00,
2013-08-02 18:22:00,69.0,63.0,-100.00,North,0,10.0,14.0,79,0.00,,,-99.99,,2013-08-02 23:22:00,
2013-08-02 18:32:00,70.0,64.0,-100.00,North,10,9.0,12.0,82,0.00,,,-99.99,,2013-08-02 23:32:00,
2013-08-02 18:43:00,70.0,64.0,-100.00,North,0,7.0,11.0,82,0.00,,,-99.99,,2013-08-02 23:43:00,
2013-08-02 19:02:00,70.0,63.0,-100.00,NNE,25,11.0,16.0,79,0.00,,,-99.99,,2013-08-03 00:02:00,
2013-08-02 19:12:00,69.0,63.0,-100.00,NNE,15,9.0,14.0,79,0.00,,,-99.99,,2013-08-03 00:12:00,
2013-08-02 19:22:00,69.0,63.0,-100.00,NNE,15,9.0,14.0,79,0.00,,,-99.99,,2013-08-03 00:22:00,
2013-08-02 19:33:00,69.0,62.0,-100.00,NNE,25,7.0,12.0,77,0.00,,,-99.99,,2013-08-03 00:33:00,
2013-08-02 19:43:00,69.0,62.0,-100.00,NNE,25,7.0,12.0,77,0.00,,,-99.99,,2013-08-03 00:43:00,
2013-08-02 19:52:00,69.0,62.0,-100.00,NNE,25,7.0,12.0,77,0.00,,,-99.99,,2013-08-03 00:52:00,
2013-08-02 20:02:00,69.0,62.0,-100.00,NNE,25,7.0,12.0,77,0.00,,,-99.99,,2013-08-03 01:02:00,
2013-08-02 20:12:00,69.0,61.0,-100.00,NNE,15,6.0,10.0,77,0.00,,,-99.99,,2013-08-03 01:12:00,
2013-08-02 20:22:00,68.0,62.0,-100.00,NNE,15,6.0,7.0,78,0.00,,,-99.99,,2013-08-03 01:22:00,
2013-08-02 20:32:00,68.0,62.0,-100.00,NNE,15,6.0,7.0,78,0.00,,,-99.99,,2013-08-03 01:32:00,
2013-08-02 20:42:00,68.0,61.0,-100.00,North,0,4.0,6.0,78,0.00,,,-99.99,,2013-08-03 01:42:00,
2013-08-02 21:02:00,68.0,61.0,-100.00,NNW,340,4.0,6.0,78,0.00,,,-99.99,,2013-08-03 02:02:00,
2013-08-02 21:12:00,68.0,61.0,-100.00,NNW,340,4.0,7.0,79,0.00,,,-99.99,,2013-08-03 02:12:00,
2013-08-02 21:22:00,67.0,61.0,-100.00,North,355,4.0,6.0,79,0.00,,,-99.99,,2013-08-03 02:22:00,
2013-08-02 21:32:00,67.0,61.0,-100.00,NNW,345,3.0,6.0,80,0.00,,,-99.99,,2013-08-03 02:32:00,
2013-08-02 21:43:00,67.0,61.0,-100.00,NNW,345,3.0,6.0,80,0.00,,,-99.99,,2013-08-03 02:43:00,
2013-08-02 21:52:00,66.0,61.0,-100.00,North,0,2.0,4.0,81,0.00,,,-99.99,,2013-08-03 02:52:00,
2013-08-02 22:02:00,66.0,61.0,-100.00,North,5,1.0,3.0,82,0.00,,,-99.99,,2013-08-03 03:02:00,
2013-08-02 22:12:00,66.0,61.0,-100.00,North,355,1.0,3.0,82,0.00,,,-99.99,,2013-08-03 03:12:00,
2013-08-02 22:22:00,66.0,61.0,-100.00,North,5,2.0,3.0,83,0.00,,,-99.99,,2013-08-03 03:22:00,
2013-08-02 22:32:00,66.0,61.0,-100.00,North,10,2.0,6.0,83,0.00,,,-99.99,,2013-08-03 03:32:00,
2013-08-02 22:43:00,66.0,61.0,-100.00,North,10,2.0,6.0,83,0.00,,,-99.99,,2013-08-03 03:43:00,
2013-08-02 23:02:00,66.0,62.0,-100.00,NNW,340,4.0,7.0,84,0.00,,,-99.99,,2013-08-03 04:02:00,
2013-08-02 23:12:00,66.0,62.0,-100.00,NNW,345,4.0,7.0,84,0.00,,,-99.99,,2013-08-03 04:12:00,
2013-08-02 23:22:00,66.0,61.0,-100.00,NNW,340,5.0,7.0,84,0.00,,,-99.99,,2013-08-03 04:22:00,
2013-08-02 23:32:00,66.0,61.0,-100.00,NNW,340,5.0,7.0,84,0.00,,,-99.99,,2013-08-03 04:32:00,
2013-08-02 23:43:00,66.0,61.0,-100.00,NNW,335,5.0,8.0,84,0.00,,,-99.99,,2013-08-03 04:43:00,
2013-08-02 23:53:00,66.0,61.0,-100.00,North,0,4.0,9.0,83,0.00,,,-99.99,,2013-08-03 04:53:00,